Flag for USA

Past Weather in Las Cruces, New Mexico, USA — Yesterday and Last 2 Weeks

Now
85 °F

Sunny.


Feels Like: 82 °F
Forecast: 88 / 50 °F
Wind: 6 mph from Southwest

Location: Las Cruces International
Current Time: Oct 20, 2020 at 6:07:23 pm
Latest Report: Oct 20, 2020 at 5:35 pm
Visibility: 10 mi
Pressure29.97 "Hg(26.21 "Hg at 1187m altitude)
Humidity: 7%
Dew Point: 14 °F
Location of Las CrucesLocation

Past Weather in Las Cruces — Graph

°F

Las Cruces Temperature Yesterday

Maximum temperature yesterday: 89 °F (at 3:55 pm)
Minimum temperature yesterday: 48 °F (at 7:15 am)
Average temperature yesterday: 70 °F

High & Low Weather Summary for the Past Weeks

 TemperatureHumidityPressure
High93 °F (Oct 14, 3:15 pm)52% (Oct 17, 6:55 am)30.35 "Hg (Oct 17, 6:55 am)
Low45 °F (Oct 17, 6:55 am)3% (Oct 14, 3:15 pm)29.96 "Hg (Oct 20, 4:55 pm)
Average69 °F16%30.12 "Hg
* Reported Oct 5 4:15 pm — Oct 20 4:55 pm, Las Cruces. Weather by CustomWeather, © 2020

Note: Actual official high and low records may vary slightly from our data, if they occured in-between our weather recording intervals... More about our weather records

Las Cruces Weather History for the Previous 24 Hours

Scroll right to see more
 ConditionsComfort  
Time TempWeatherWind HumidityBarometerVisibility
4:55 pm
Tue, Oct 20
86 °FSunny.3 mph7%29.96 "Hg10 mi
4:35 pm86 °FSunny.7 mph6%29.97 "Hg10 mi
4:15 pm87 °FSunny.5 mph6%29.97 "Hg10 mi
3:55 pm87 °FSunny.No wind6%29.97 "Hg10 mi
3:35 pm86 °FSunny.No wind7%29.98 "Hg10 mi
3:15 pm86 °FSunny.3 mph7%29.98 "Hg10 mi
2:55 pm85 °FSunny.5 mph7%29.99 "Hg10 mi
2:35 pm85 °FSunny.5 mph7%29.99 "Hg10 mi
2:15 pm85 °FSunny.7 mph7%30.00 "Hg10 mi
1:55 pm84 °FSunny.No wind7%30.01 "Hg10 mi
1:35 pm83 °FSunny.3 mph8%30.02 "Hg10 mi
1:15 pm82 °FSunny.No wind8%30.03 "Hg10 mi
12:55 pm82 °FSunny.No wind9%30.04 "Hg10 mi
12:35 pm80 °FSunny.No wind9%30.05 "Hg10 mi
11:55 am79 °FSunny.3 mph10%30.07 "Hg10 mi
11:35 am77 °FSunny.3 mph10%30.07 "Hg10 mi
11:15 am76 °FSunny.No wind10%30.07 "Hg10 mi
10:55 am73 °FSunny.No wind12%30.07 "Hg10 mi
10:35 am72 °FSunny.3 mph13%30.08 "Hg10 mi
10:15 am71 °FSunny.No wind12%30.08 "Hg10 mi
9:55 am70 °FSunny.3 mph12%30.08 "Hg10 mi
9:35 am67 °FSunny.No wind13%30.07 "Hg10 mi
9:15 am67 °FSunny.No wind13%30.07 "Hg10 mi
8:55 am65 °FSunny.No wind14%30.07 "Hg10 mi
8:35 am63 °FSunny.No wind15%30.05 "Hg10 mi
8:15 am59 °FSunny.No wind17%30.05 "Hg10 mi
7:55 am54 °FSunny.7 mph21%30.05 "Hg10 mi
7:35 am51 °FSunny.7 mph23%30.04 "Hg10 mi
7:15 am51 °FSunny.7 mph23%30.04 "Hg10 mi
6:55 am50 °FClear.6 mph23%30.04 "Hg10 mi
6:35 am50 °FClear.3 mph22%30.03 "Hg10 mi
6:15 am48 °FClear.7 mph24%30.03 "Hg10 mi
5:55 am50 °FClear.7 mph23%30.03 "Hg10 mi
5:35 am49 °FClear.5 mph23%30.03 "Hg10 mi
4:55 am50 °FClear.5 mph22%30.01 "Hg10 mi
4:35 am54 °FClear.6 mph19%30.01 "Hg10 mi
4:15 am55 °FClear.6 mph19%30.01 "Hg10 mi
3:55 am55 °FClear.7 mph18%30.01 "Hg10 mi
3:35 am54 °FClear.9 mph18%30.01 "Hg10 mi
3:15 am55 °FClear.13 mph17%30.01 "Hg10 mi
2:55 am55 °FClear.8 mph17%30.01 "Hg10 mi
2:35 am58 °FClear.13 mph15%30.02 "Hg10 mi
1:55 am54 °FClear.10 mph17%30.02 "Hg10 mi
1:35 am55 °FClear.10 mph17%30.02 "Hg10 mi
1:15 am58 °FClear.7 mph15%30.02 "Hg10 mi
12:55 am57 °FClear.8 mph16%30.02 "Hg10 mi
12:35 am59 °FClear.9 mph15%30.03 "Hg10 mi
12:15 am56 °FClear.6 mph17%30.03 "Hg10 mi
11:55 pm
Mon, Oct 19
57 °FClear.3 mph16%30.03 "Hg10 mi
11:35 pm59 °FClear.9 mph15%30.03 "Hg10 mi
11:15 pm64 °FClear.9 mph13%30.03 "Hg10 mi
10:55 pm64 °FClear.8 mph13%30.03 "Hg10 mi
10:35 pm65 °FClear.10 mph13%30.03 "Hg10 mi
10:15 pm64 °FClear.9 mph13%30.03 "Hg10 mi
9:55 pm67 °FClear.9 mph12%30.03 "Hg10 mi
9:35 pm67 °FClear.13 mph12%30.03 "Hg10 mi
9:15 pm66 °FClear.9 mph12%30.03 "Hg10 mi
8:55 pm67 °FClear.9 mph11%30.03 "Hg10 mi
8:35 pm70 °FClear.10 mph10%30.03 "Hg10 mi
8:15 pm70 °FClear.12 mph10%30.03 "Hg10 mi
7:55 pm69 °FClear.9 mph11%30.03 "Hg10 mi
7:35 pm71 °FClear.8 mph10%30.03 "Hg10 mi
7:15 pm74 °FClear.8 mph9%30.02 "Hg10 mi
6:55 pm74 °FClear.6 mph10%30.01 "Hg10 mi
6:35 pm76 °FClear.5 mph9%30.01 "Hg10 mi
Weather by CustomWeather, © 2020

See weather overview